����,�C�@��,���@�x,���@��,���@��,���@��,�ϐ�[,�ϐ�d��1,�ϐ�d��2,�ϐ�d��3,�J�@��,�~��o��,�~�ይ�x�i��j,�~�ይ�x�i���j,�~�ይ�x�i���j,���,�Z��~����1,�Z��~����2,�Z��~����3,�Z��~����4,�J�ᔻ��,�Z���T���x
����,��,��,kw/�u,��,m/s,cm,kg/�u,kg/�u,kg/�u,mm,1=�L_0=��,1=�L_0=��,1=�L_0=��,1=�L_0=��,p,p,p,p,p,��,��
2017-11-01 00:00:00,7.27,87.90,0.000,205.40,0.99,0.4,11.04,0.00,-266.76,0.0,0,0,0,0,0,0.00,0.00,0.00,0.00,5.75,-154.20
2017-11-01 00:10:00,7.27,86.80,0.000,179.70,0.62,0.4,12.73,0.00,-267.10,0.0,0,0,0,0,0,0.00,0.00,0.00,0.00,5.75,-153.80
2017-11-01 00:20:00,7.15,86.60,0.000,144.50,0.33,0.4,11.37,0.00,-265.40,0.0,0,0,0,0,0,0.00,0.00,0.00,0.00,5.42,-154.50
2017-11-01 00:30:00,6.82,87.60,0.000,27.28,0.25,0.4,12.39,0.00,-267.43,0.0,0,0,0,0,0,23.00,0.00,0.00,0.00,4.92,-154.00
2017-11-01 00:40:00,6.70,88.60,0.000,36.20,0.36,0.4,11.37,0.00,-267.10,0.0,0,0,0,0,0,0.00,0.00,0.00,0.00,4.92,-154.60
2017-11-01 00:50:00,6.62,88.50,0.000,197.30,0.23,0.4,13.07,0.00,-272.51,0.0,0,0,0,0,0,0.00,0.00,24.00,0.00,5.09,-157.00
2017-11-01 01:00:00,6.53,88.60,0.000,167.40,0.25,0.4,11.37,0.00,-276.24,0.0,0,0,0,0,0,0.00,0.00,0.00,0.00,4.80,-155.40
2017-11-01 01:10:00,6.29,89.00,0.000,150.50,0.21,0.4,11.71,0.00,-273.87,0.0,0,0,0,0,0,0.00,0.00,0.00,0.00,4.43,-156.40
2017-11-01 01:20:00,6.20,89.70,0.000,159.80,0.26,0.4,13.07,0.00,-274.20,0.0,0,0,0,0,0,0.00,0.00,0.00,0.00,4.63,-156.40
2017-11-01 01:30:00,6.28,89.90,0.001,206.00,0.51,0.4,13.07,0.00,-273.87,0.0,0,0,0,0,0,0.00,0.00,0.00,0.00,4.55,-156.70
2017-11-01 01:40:00,6.12,89.90,0.000,212.80,0.20,0.4,12.39,0.00,-273.87,0.0,0,0,0,0,0,0.00,0.00,0.00,0.00,4.43,-157.50
2017-11-01 01:50:00,6.00,90.30,0.000,187.20,0.36,0.4,11.37,0.00,-273.87,0.0,0,0,0,0,0,0.00,0.00,0.00,0.00,4.51,-156.50
2017-11-01 02:00:00,5.83,90.50,0.000,161.30,0.51,0.4,11.71,0.00,-274.20,0.0,0,0,0,0,0,0.00,0.00,0.00,0.00,4.43,-156.70
2017-11-01 02:10:00,5.71,90.90,0.000,181.40,0.42,0.4,13.07,0.00,-273.19,0.0,0,0,0,0,0,0.00,0.00,0.00,0.00,4.35,-156.60
2017-11-01 02:20:00,5.71,90.90,0.000,208.20,0.63,0.4,13.07,0.00,-274.20,0.0,0,0,0,0,0,0.00,0.00,0.00,0.00,4.35,-156.70
2017-11-01 02:30:00,5.75,91.00,0.000,203.30,0.31,0.4,12.39,0.00,-273.87,0.0,0,0,0,0,0,0.00,0.00,0.00,0.00,4.22,-157.00
2017-11-01 02:40:00,5.63,90.80,0.000,205.10,0.24,0.4,13.41,0.00,-277.93,0.0,0,0,0,0,0,0.00,0.00,0.00,0.00,4.26,-157.20
2017-11-01 02:50:00,5.54,90.70,0.000,169.60,0.30,0.4,11.04,0.00,-276.24,0.0,0,0,0,0,0,0.00,0.00,0.00,0.00,4.18,-157.60
2017-11-01 03:00:00,5.50,90.50,0.000,169.40,0.20,0.4,11.71,0.00,-275.90,0.0,0,0,0,0,0,0.00,0.00,0.00,0.00,3.98,-156.80
2017-11-01 03:10:00,5.26,90.90,0.000,121.70,0.19,0.4,11.71,0.00,-275.22,0.0,0,0,0,0,0,0.00,0.00,0.00,0.00,3.52,-157.60
2017-11-01 03:20:00,5.30,91.50,0.001,174.80,0.24,0.4,12.39,0.00,-275.22,0.0,0,0,0,0,0,0.00,0.00,0.00,0.00,3.94,-158.40
2017-11-01 03:30:00,5.21,91.50,0.000,178.70,0.19,0.4,11.71,0.00,-276.24,0.0,0,0,0,0,0,0.00,0.00,0.00,0.00,3.85,-157.00
2017-11-01 03:40:00,4.88,91.30,0.000,92.20,0.24,0.4,12.39,0.00,-276.91,0.0,0,0,0,0,0,0.00,0.00,0.00,0.00,3.40,-157.20
2017-11-01 03:50:00,4.72,91.80,0.000,58.81,0.26,0.4,11.37,0.00,-275.56,0.0,0,0,0,0,0,0.00,0.00,0.00,0.00,3.28,-157.00
2017-11-01 04:00:00,4.76,91.90,0.000,48.76,0.18,0.4,11.71,0.00,-281.99,0.0,0,0,0,0,0,0.00,0.00,0.00,0.00,3.28,-156.70
2017-11-01 04:10:00,4.72,92.20,0.000,45.12,0.21,0.4,11.71,0.00,-278.61,0.0,0,0,0,0,0,0.00,0.00,0.00,0.00,3.28,-156.00
2017-11-01 04:20:00,4.64,92.50,0.001,57.12,0.24,0.4,13.07,0.00,-280.30,0.0,0,0,0,0,0,0.00,0.00,0.00,25.00,3.20,-154.90
2017-11-01 04:30:00,4.80,92.30,0.001,155.90,0.24,0.4,13.41,0.00,-280.30,0.0,0,0,0,0,0,0.00,0.00,0.00,0.00,3.44,-154.60
2017-11-01 04:40:00,4.80,92.30,0.001,186.10,0.13,0.4,11.71,0.00,-280.30,0.0,0,0,0,0,0,0.00,0.00,0.00,0.00,3.36,-154.50
2017-11-01 04:50:00,4.80,91.90,0.000,140.60,0.26,0.4,11.71,0.00,-281.31,0.0,0,0,0,0,0,0.00,0.00,0.00,0.00,3.36,-154.40
2017-11-01 05:00:00,4.72,91.60,0.000,124.10,0.20,0.4,13.41,0.00,-278.94,0.0,0,0,0,0,0,0.00,0.00,0.00,0.00,3.19,-154.30
2017-11-01 05:10:00,4.60,91.70,0.000,31.96,0.26,0.4,13.74,0.00,-280.30,0.0,0,0,0,0,0,0.00,0.00,0.00,0.00,2.95,-154.00
2017-11-01 05:20:00,4.72,91.90,0.003,151.90,0.19,0.4,11.71,0.00,-279.62,0.0,0,0,0,0,0,0.00,0.00,0.00,0.00,3.32,-153.50
2017-11-01 05:30:00,4.88,91.50,0.001,176.70,0.51,0.4,11.71,0.00,-279.96,0.0,0,0,0,0,0,0.00,0.00,0.00,0.00,3.44,-155.00
2017-11-01 05:40:00,4.84,91.00,0.000,168.90,1.27,0.4,12.05,0.00,-283.68,0.0,0,0,0,0,0,0.00,0.00,0.00,0.00,3.52,-154.90
2017-11-01 05:50:00,4.76,90.90,0.000,180.10,0.59,0.4,11.71,0.00,-284.02,0.0,0,0,0,0,0,0.00,0.00,0.00,0.00,3.36,-154.50
2017-11-01 06:00:00,4.68,90.90,0.002,162.10,0.46,0.4,13.41,0.00,-280.30,0.0,0,0,0,0,0,0.00,0.00,0.00,0.00,3.28,-154.50
2017-11-01 06:10:00,4.68,90.90,0.007,191.00,0.56,0.4,12.05,0.00,-279.28,0.0,0,0,0,0,0,0.00,0.00,0.00,0.00,3.24,-154.80
2017-11-01 06:20:00,4.80,90.70,0.012,174.50,0.78,0.4,12.39,0.00,-276.57,0.0,0,0,0,0,0,0.00,0.00,0.00,0.00,3.44,-154.10
2017-11-01 06:30:00,4.84,90.10,0.017,163.10,0.32,0.4,11.04,0.00,-276.91,0.0,0,0,0,0,0,0.00,0.00,0.00,0.00,3.44,-154.60
2017-11-01 06:40:00,4.72,89.70,0.018,70.29,0.21,0.4,12.05,0.00,-275.22,0.0,0,0,0,0,0,0.00,0.00,0.00,0.00,3.36,-154.30
2017-11-01 06:50:00,4.64,90.10,0.034,51.79,0.24,0.4,13.07,0.00,-275.22,0.0,0,0,0,0,0,0.00,0.00,0.00,0.00,3.44,-154.60
2017-11-01 07:00:00,5.21,90.50,0.042,59.48,0.25,0.4,11.71,0.00,-277.93,0.0,0,0,0,0,0,0.00,0.00,0.00,0.00,4.14,-154.50
2017-11-01 07:10:00,5.95,88.80,0.078,163.40,0.71,0.4,11.71,0.00,-278.27,0.0,0,0,0,0,0,0.00,0.00,0.00,0.00,5.05,-154.60
2017-11-01 07:20:00,6.37,87.00,0.083,177.30,0.49,0.4,12.39,0.00,-272.85,0.0,0,0,0,0,0,0.00,0.00,0.00,0.00,5.70,-154.60
2017-11-01 07:30:00,6.94,85.90,0.243,144.50,0.63,0.4,11.71,0.00,-267.77,0.0,0,0,0,0,0,0.00,0.00,0.00,0.00,6.28,-154.80
2017-11-01 07:40:00,7.07,85.90,0.255,40.94,0.23,0.4,13.74,0.00,-262.69,0.0,0,0,0,0,0,0.00,0.00,0.00,0.00,6.61,-154.40
2017-11-01 07:50:00,8.06,83.30,0.080,166.90,0.38,0.4,13.07,0.00,-256.60,0.0,0,0,0,0,0,0.00,0.00,0.00,0.00,7.64,-153.60
2017-11-01 08:00:00,8.80,79.21,0.115,197.00,0.69,0.4,11.04,0.00,-250.51,0.0,0,0,0,0,0,0.00,0.00,0.00,0.00,8.63,-153.10
2017-11-01 08:10:00,9.21,74.34,0.329,206.80,1.94,0.4,13.41,0.00,-242.38,0.0,0,0,0,0,0,0.00,0.00,0.00,0.00,9.29,-152.20
2017-11-01 08:20:00,9.62,72.55,0.354,207.30,2.16,0.4,13.74,0.00,-233.92,0.0,0,0,0,0,0,0.00,0.00,0.00,0.00,9.87,-151.20
2017-11-01 08:30:00,10.24,69.87,0.230,210.60,0.67,0.4,11.04,0.00,-227.83,0.0,0,0,0,0,0,0.00,0.00,0.00,0.00,10.82,-151.00
2017-11-01 08:40:00,10.40,68.86,0.250,199.10,0.78,0.4,11.04,0.00,-220.72,0.0,0,0,0,0,0,0.00,0.00,0.00,0.00,10.73,-149.70
2017-11-01 08:50:00,10.68,68.48,0.256,193.10,1.22,0.4,11.71,0.00,-216.66,0.0,0,0,0,0,0,0.00,0.00,0.00,0.00,11.04,-149.30
2017-11-01 09:00:00,10.71,67.87,0.280,199.60,1.24,0.5,13.07,0.00,-213.61,0.0,0,0,0,0,0,0.00,0.00,0.00,0.00,11.45,-149.10
2017-11-01 09:10:00,10.95,67.50,0.551,210.00,1.37,0.4,13.07,0.00,-211.24,0.5,0,0,0,0,0,23.00,0.00,0.00,0.00,16.27,-149.20
2017-11-01 09:20:00,11.85,64.05,0.545,204.40,0.92,0.5,11.04,0.00,-209.88,0.0,0,0,0,0,0,0.00,24.00,25.00,0.00,15.31,-148.30
2017-11-01 09:30:00,12.30,62.53,0.247,204.40,1.29,0.5,11.71,0.00,-207.52,0.0,0,0,0,0,0,0.00,0.00,0.00,0.00,14.23,-148.40
2017-11-01 09:40:00,12.16,63.03,0.604,212.90,1.72,0.5,13.07,0.00,-207.18,0.0,0,0,0,0,0,0.00,0.00,0.00,0.00,12.98,-148.30
2017-11-01 09:50:00,12.53,60.73,0.496,210.70,1.65,0.5,11.04,0.00,-205.48,0.0,0,0,0,0,0,0.00,0.00,0.00,0.00,14.30,-148.40
2017-11-01 10:00:00,12.75,60.36,0.253,209.60,1.36,0.5,12.05,0.00,-207.85,0.0,0,0,0,0,0,0.00,0.00,0.00,0.00,14.64,-148.00
2017-11-01 10:10:00,12.66,59.55,0.519,201.60,1.42,0.5,11.04,0.00,-209.21,0.0,0,0,0,0,0,0.00,0.00,0.00,0.00,16.00,-148.30
2017-11-01 10:20:00,12.58,59.11,0.464,212.30,1.85,0.5,9.68,0.00,-210.56,0.0,0,0,0,0,0,0.00,0.00,0.00,0.00,14.18,-148.50
2017-11-01 10:30:00,13.06,58.12,0.438,185.50,1.71,0.5,10.02,0.00,-209.55,0.0,0,0,0,0,0,0.00,0.00,0.00,0.00,16.24,-148.60
2017-11-01 10:40:00,12.90,59.82,0.308,202.50,1.50,0.5,10.36,0.00,-207.85,0.0,0,0,0,0,0,0.00,0.00,0.00,0.00,15.00,-148.30
2017-11-01 10:50:00,12.57,58.57,0.286,158.90,0.29,0.5,12.05,0.00,-205.49,0.0,0,0,0,0,0,0.00,0.00,0.00,0.00,14.01,-149.30
2017-11-01 11:00:00,12.70,59.01,0.316,163.70,0.89,0.5,11.72,0.00,-201.76,0.0,0,0,0,0,0,0.00,0.00,0.00,0.00,14.35,-149.90
2017-11-01 11:10:00,12.73,59.14,0.320,189.30,1.14,0.5,11.38,0.00,-202.11,0.0,0,0,0,0,0,0.00,0.00,0.00,0.00,14.33,-150.80
2017-11-01 11:20:00,12.97,59.55,0.336,195.50,1.34,0.5,12.40,0.00,-201.43,0.0,0,0,0,0,0,0.00,0.00,0.00,0.00,15.03,-150.40
2017-11-01 11:30:00,13.05,59.52,0.339,196.90,0.91,0.5,9.69,0.00,-203.14,0.0,0,0,0,0,0,0.00,0.00,0.00,0.00,14.57,-148.80
2017-11-01 11:40:00,13.21,59.25,0.295,192.70,0.92,0.5,9.70,0.00,-207.88,0.0,0,0,0,0,0,0.00,0.00,0.00,0.00,15.40,-149.10
2017-11-01 11:50:00,14.34,55.80,0.741,189.70,0.68,0.5,9.70,0.00,-208.22,0.0,0,0,0,0,0,0.00,0.00,0.00,0.00,19.83,-148.60
2017-11-01 12:00:00,14.54,55.02,0.537,178.10,0.55,0.5,11.73,0.00,-205.85,0.0,0,0,0,0,0,0.00,0.00,0.00,0.00,20.24,-151.40
2017-11-01 12:10:00,15.49,52.51,0.415,195.00,0.51,0.5,11.39,0.00,-202.47,0.0,0,0,0,0,0,0.00,0.00,0.00,0.00,19.61,-151.20
2017-11-01 12:20:00,15.36,52.78,0.732,195.20,0.44,0.5,11.05,0.00,-198.75,0.0,0,0,0,0,0,0.00,0.00,0.00,0.00,18.33,-151.30
2017-11-01 12:30:00,15.77,51.63,0.248,270.20,0.63,0.7,11.05,0.00,-193.33,0.0,0,0,0,0,0,0.00,0.00,0.00,0.00,17.46,-151.20
2017-11-01 12:40:00,16.10,48.28,0.402,243.80,0.30,0.7,8.68,0.00,-191.30,0.0,0,0,0,0,0,0.00,0.00,0.00,0.00,18.32,-148.50
2017-11-01 12:50:00,16.26,48.15,0.653,269.30,0.29,0.7,10.72,0.00,-190.28,0.0,0,0,0,0,0,0.00,0.00,0.00,0.00,19.03,-148.20
2017-11-01 13:00:00,17.09,45.27,0.515,219.20,0.34,0.7,11.05,0.00,-189.94,0.0,0,0,0,0,0,0.00,0.00,0.00,0.00,20.76,-147.60
2017-11-01 13:10:00,17.26,39.31,0.351,347.40,0.61,0.7,10.38,0.00,-189.94,0.0,0,0,0,0,0,0.00,0.00,0.00,0.00,20.97,-147.80
2017-11-01 13:20:00,17.01,44.15,0.248,0.00,0.16,0.7,10.38,0.00,-193.67,0.0,0,0,0,0,0,0.00,0.00,0.00,0.00,19.11,-150.10
2017-11-01 13:30:00,16.92,44.15,0.309,301.60,0.24,0.7,8.35,0.00,-194.35,0.0,0,0,0,0,0,0.00,0.00,0.00,0.00,20.18,-149.90
2017-11-01 13:40:00,16.92,43.24,0.321,189.60,0.23,0.7,9.03,0.00,-193.33,0.0,0,0,0,0,0,0.00,0.00,0.00,0.00,20.72,-150.50
2017-11-01 13:50:00,17.74,43.00,0.289,175.20,0.26,0.7,11.06,0.00,-193.00,0.0,0,0,0,0,0,0.00,0.00,0.00,0.00,20.42,-150.40
2017-11-01 14:00:00,17.95,40.40,0.229,107.90,0.23,0.7,8.36,0.00,-190.98,0.0,0,0,0,0,0,0.00,0.00,0.00,0.00,20.10,-151.10
2017-11-01 14:10:00,17.83,40.74,0.180,80.30,0.30,0.7,9.04,0.00,-192.68,0.0,0,0,0,0,0,0.00,0.00,0.00,0.00,19.44,-151.40
2017-11-01 14:20:00,17.67,41.41,0.241,115.40,0.24,0.7,9.04,0.00,-196.74,0.0,0,0,0,0,0,0.00,0.00,0.00,0.00,19.15,-153.20
2017-11-01 14:30:00,17.79,39.72,0.182,62.44,0.30,0.7,9.04,0.00,-203.18,0.0,0,0,0,0,0,0.00,0.00,0.00,0.00,18.94,-153.80
2017-11-01 14:40:00,17.75,40.26,0.199,150.50,0.23,0.7,12.43,0.00,-209.61,0.0,0,0,0,0,0,0.00,0.00,0.00,0.00,19.11,-154.30
2017-11-01 14:50:00,17.51,44.36,0.125,155.50,0.23,0.7,11.75,0.00,-210.63,0.0,0,0,0,0,0,0.00,0.00,0.00,0.00,18.65,-154.80
2017-11-01 15:00:00,17.88,41.28,0.145,161.40,0.23,0.7,10.40,0.00,-213.00,0.0,0,0,0,0,0,0.00,0.00,0.00,0.00,18.70,-154.90
2017-11-01 15:10:00,17.59,40.98,0.135,190.70,0.20,0.7,11.75,0.00,-216.05,0.0,0,0,0,0,0,0.00,0.00,0.00,0.00,18.32,-154.70
2017-11-01 15:20:00,17.26,41.69,0.170,182.10,0.22,0.7,10.06,0.00,-216.73,0.0,0,0,0,0,0,0.00,0.00,0.00,0.00,18.41,-154.30
2017-11-01 15:30:00,17.67,42.53,0.109,182.90,0.20,0.7,9.04,0.00,-217.74,0.0,0,0,0,0,0,0.00,0.00,0.00,0.00,18.16,-153.30
2017-11-01 15:40:00,17.67,41.45,0.155,215.10,0.18,0.7,8.36,0.00,-219.10,0.0,0,0,0,0,0,0.00,0.00,0.00,0.00,18.78,-153.30
2017-11-01 15:50:00,17.50,43.11,0.055,217.00,0.35,0.7,8.36,0.00,-221.80,0.0,0,0,0,0,0,0.00,0.00,0.00,0.00,18.16,-153.20
2017-11-01 16:00:00,17.17,43.99,0.051,224.00,0.24,0.7,12.42,0.00,-223.83,0.0,0,0,0,0,0,0.00,0.00,0.00,0.00,17.17,-154.20
2017-11-01 16:10:00,17.17,48.97,0.029,198.10,0.21,0.7,11.07,0.00,-231.62,0.0,0,0,0,0,0,0.00,0.00,0.00,0.00,16.59,-154.40
2017-11-01 16:20:00,16.59,56.21,0.012,178.00,0.24,0.7,13.10,0.00,-234.32,0.0,0,0,0,0,0,0.00,0.00,0.00,0.00,15.84,-154.40
2017-11-01 16:30:00,15.97,60.65,0.008,164.90,0.42,0.7,13.10,0.00,-237.37,0.0,0,0,0,0,0,0.00,0.00,0.00,0.00,15.02,11.80
2017-11-01 16:40:00,15.36,63.38,0.003,157.40,0.51,0.7,12.41,0.00,-243.11,0.0,0,0,0,0,0,0.00,0.00,0.00,0.00,14.52,11.06
2017-11-01 16:50:00,14.86,64.16,0.000,135.80,0.25,0.7,12.75,0.00,-247.84,0.0,0,0,0,0,0,0.00,0.00,0.00,0.00,13.94,9.70
2017-11-01 17:00:00,14.54,63.86,0.000,157.30,0.19,0.5,12.41,0.00,-251.57,0.0,0,0,0,0,0,0.00,0.00,0.00,0.00,13.58,5.34
2017-11-01 17:10:00,14.33,63.55,0.000,140.80,0.18,0.5,9.02,0.00,-255.97,0.0,0,0,0,0,0,0.00,0.00,0.00,0.00,13.21,-149.70
2017-11-01 17:20:00,13.88,64.80,0.000,175.70,0.16,0.5,12.75,0.00,-261.72,0.0,0,0,0,0,0,0.00,0.00,0.00,0.00,13.05,-149.30
2017-11-01 17:30:00,13.87,66.40,0.000,193.90,0.29,0.5,13.09,0.00,-265.45,0.0,0,0,0,0,0,0.00,0.00,0.00,0.00,13.00,-149.00
2017-11-01 17:40:00,13.80,67.01,0.001,202.60,0.70,0.5,13.42,0.00,-273.91,0.0,0,0,0,0,0,0.00,0.00,0.00,0.00,13.06,-149.00
2017-11-01 17:50:00,13.80,66.23,0.000,197.70,0.83,0.5,12.41,0.00,-279.33,0.0,0,0,0,0,0,0.00,0.00,0.00,0.00,12.96,-149.00
2017-11-01 18:00:00,13.51,69.85,0.000,204.90,0.53,0.5,11.05,0.00,-280.01,0.0,0,0,0,0,0,0.00,0.00,0.00,0.00,12.55,-149.40
2017-11-01 18:10:00,13.30,72.35,0.000,216.10,0.44,0.5,8.35,0.00,-281.02,0.0,0,0,0,0,0,0.00,0.00,0.00,0.00,12.31,-149.30
2017-11-01 18:20:00,13.22,73.34,0.000,207.00,0.21,0.5,13.76,0.00,-281.02,0.0,0,0,0,0,0,0.00,0.00,0.00,0.00,12.19,-149.60
2017-11-01 18:30:00,12.90,76.38,0.000,202.50,0.23,0.5,9.36,0.00,-281.36,0.0,0,0,0,0,0,0.00,0.00,0.00,0.00,11.94,-148.60
2017-11-01 18:40:00,12.73,79.43,0.000,203.00,1.00,0.5,11.39,0.00,-281.70,0.0,0,0,0,0,0,0.00,0.00,0.00,0.00,11.70,-147.30
2017-11-01 18:50:00,12.41,81.40,0.000,201.50,0.82,0.5,9.02,0.00,-282.38,0.0,0,0,0,0,0,0.00,0.00,0.00,0.00,11.46,-147.50
2017-11-01 19:00:00,12.33,82.50,0.000,204.30,0.72,0.5,12.41,0.00,-282.72,0.0,0,0,0,0,0,0.00,0.00,0.00,0.00,11.46,-146.70
2017-11-01 19:10:00,12.14,82.90,0.000,200.70,1.10,0.5,13.42,0.00,-288.13,0.0,0,0,0,0,0,0.00,0.00,0.00,0.00,11.47,-146.00
2017-11-01 19:20:00,12.12,83.20,0.000,183.00,1.14,0.5,9.02,0.00,-286.10,0.0,0,0,0,0,0,0.00,0.00,0.00,0.00,11.25,-146.10
2017-11-01 19:30:00,11.92,83.50,0.000,208.50,1.49,0.5,10.38,0.00,-284.07,0.0,0,0,0,0,0,0.00,0.00,0.00,0.00,11.13,-146.30
2017-11-01 19:40:00,12.01,83.30,0.000,213.90,1.72,0.5,13.09,0.00,-284.74,0.0,0,0,0,0,0,0.00,0.00,0.00,0.00,11.30,-146.60
2017-11-01 19:50:00,12.21,82.00,0.001,208.30,1.55,0.5,10.38,0.00,-284.07,0.0,0,0,0,0,0,0.00,0.00,0.00,0.00,11.51,-146.10
2017-11-01 20:00:00,12.46,79.36,0.000,212.70,1.76,0.5,9.02,0.00,-281.02,0.0,0,0,0,0,0,0.00,0.00,0.00,0.00,11.54,-146.30
2017-11-01 20:10:00,12.50,78.07,0.000,218.10,1.19,0.5,13.08,0.00,-280.68,0.0,0,0,0,0,0,0.00,0.00,0.00,0.00,11.54,-146.10
2017-11-01 20:20:00,12.42,78.24,0.000,211.10,1.83,0.5,13.08,0.00,-279.66,0.0,0,0,0,0,0,0.00,0.00,0.00,0.00,11.38,-146.00
2017-11-01 20:30:00,12.33,78.69,0.000,213.60,2.10,0.5,9.36,0.00,-278.31,0.0,0,0,0,0,0,0.00,0.00,0.00,0.00,11.34,-145.90
2017-11-01 20:40:00,12.17,78.52,0.000,214.80,0.66,0.5,9.70,0.00,-282.37,0.0,0,0,0,0,0,0.00,0.00,0.00,0.00,11.13,-145.60
2017-11-01 20:50:00,12.21,77.80,0.000,206.60,0.19,0.5,9.70,0.00,-281.02,0.0,0,0,0,0,0,0.00,0.00,0.00,0.00,11.18,-145.40
2017-11-01 21:00:00,12.09,77.47,0.000,209.40,0.17,0.5,13.76,0.00,-279.32,0.0,0,0,0,0,0,0.00,0.00,0.00,0.00,11.14,-145.50
2017-11-01 21:10:00,12.18,76.08,0.001,206.80,0.22,0.5,13.08,0.00,-278.65,0.0,0,0,0,0,0,0.00,0.00,0.00,0.00,11.22,-145.30
2017-11-01 21:20:00,12.10,76.25,0.000,205.00,0.18,0.5,8.68,0.00,-276.61,0.0,0,0,0,0,0,0.00,0.00,0.00,0.00,11.06,-145.40
2017-11-01 21:30:00,12.01,76.85,0.000,207.70,0.23,0.5,9.02,0.00,-274.92,0.0,0,0,0,0,0,0.00,0.00,0.00,0.00,10.98,-145.30
2017-11-01 21:40:00,11.93,77.57,0.000,203.10,0.25,0.5,13.76,0.00,-273.90,0.0,0,0,0,0,0,0.00,0.00,0.00,0.00,10.81,-145.00
2017-11-01 21:50:00,11.93,78.11,0.000,207.70,0.26,0.5,13.76,0.00,-272.89,0.0,0,0,0,0,0,0.00,0.00,0.00,0.00,10.81,-145.20
2017-11-01 22:00:00,11.52,79.60,0.000,203.20,0.26,0.5,10.03,0.00,-274.57,0.0,0,0,0,0,0,0.00,0.00,0.00,0.00,10.48,-145.00
2017-11-01 22:10:00,11.35,80.80,0.000,215.50,0.34,0.5,12.40,0.00,-274.57,0.0,0,0,0,0,0,0.00,0.00,0.00,0.00,10.32,-145.00
2017-11-01 22:20:00,11.19,82.00,0.000,215.60,0.23,0.5,13.75,0.00,-277.28,0.0,0,0,0,0,0,0.00,0.00,0.00,0.00,10.11,-145.40
2017-11-01 22:30:00,10.94,82.60,0.000,202.20,0.29,0.5,9.70,0.00,-275.93,0.0,0,0,0,0,0,0.00,0.00,0.00,0.00,9.99,-149.50
2017-11-01 22:40:00,10.78,83.00,0.000,200.50,0.24,0.5,9.01,0.00,-276.25,0.0,0,0,0,0,0,0.00,0.00,0.00,0.00,9.74,-149.10
2017-11-01 22:50:00,10.61,83.80,0.000,200.10,0.20,0.5,11.72,0.00,-275.57,0.0,0,0,0,0,0,0.00,0.00,0.00,0.00,9.62,-148.70
2017-11-01 23:00:00,10.57,84.00,0.000,205.10,0.27,0.5,13.42,0.00,-275.92,0.0,0,0,0,0,0,0.00,0.00,0.00,0.00,9.57,-148.30
2017-11-01 23:10:00,10.61,83.60,0.002,216.60,0.30,0.5,11.04,0.00,-274.90,0.0,0,0,0,0,0,0.00,0.00,0.00,0.00,9.62,-148.70
2017-11-01 23:20:00,10.65,82.60,0.001,208.90,0.28,0.4,10.37,0.00,-274.90,0.0,0,0,0,0,0,0.00,0.00,0.00,0.00,9.82,-149.40
2017-11-01 23:30:00,10.70,82.00,0.000,210.90,0.28,0.5,13.07,0.00,-279.29,0.0,0,0,0,0,0,0.00,0.00,0.00,0.00,9.66,-148.40
2017-11-01 23:40:00,10.62,81.80,0.000,217.90,0.24,0.5,13.41,0.00,-279.64,0.0,0,0,0,0,0,0.00,0.00,0.00,0.00,9.59,-147.20
2017-11-01 23:50:00,10.58,82.20,0.000,217.80,0.28,0.5,13.75,0.00,-276.92,0.0,0,0,0,0,0,0.00,0.00,0.00,0.00,9.67,-147.00
2017-11-02 00:00:00,10.45,82.70,0.000,215.80,0.35,0.4,13.75,0.00,-275.23,0.0,0,0,0,0,0,0.00,0.00,0.00,0.00,9.62,-147.00
2017-11-02 00:10:00,10.42,82.40,0.000,215.30,2.03,0.4,12.39,0.00,-273.87,0.0,0,0,0,0,0,0.00,0.00,0.00,0.00,9.43,-146.60
2017-11-02 00:20:00,10.54,81.70,0.000,209.70,1.07,0.5,9.68,0.00,-273.19,0.0,0,0,0,0,0,0.00,0.00,0.00,0.00,9.67,-146.20
2017-11-02 00:30:00,10.54,81.60,0.000,218.30,1.30,0.5,10.02,0.00,-271.50,0.0,0,0,0,0,0,0.00,0.00,0.00,0.00,9.51,-146.20
2017-11-02 00:40:00,10.50,81.30,0.000,206.60,2.36,0.4,10.02,0.00,-270.49,0.0,0,0,0,0,0,0.00,0.00,0.00,0.00,9.42,-145.80
2017-11-02 00:50:00,10.54,80.70,0.000,217.80,1.81,0.5,9.68,0.00,-269.13,0.0,0,0,0,0,0,0.00,0.00,0.00,0.00,9.66,-146.10
2017-11-02 01:00:00,10.62,80.50,0.002,212.40,2.30,0.5,10.02,0.00,-269.47,0.0,0,0,0,0,0,0.00,0.00,0.00,0.00,10.04,-145.80
2017-11-02 01:10:00,10.45,80.30,0.000,207.30,1.47,0.4,10.36,0.00,-270.14,0.0,0,0,0,0,0,0.00,0.00,0.00,0.00,10.08,-145.80
2017-11-02 01:20:00,10.37,81.00,0.000,202.80,0.68,0.5,13.74,0.00,-266.76,0.0,0,0,0,0,0,0.00,0.00,0.00,0.00,9.95,-145.10
2017-11-02 01:30:00,10.37,81.80,0.000,198.00,0.27,0.4,13.75,0.00,-267.44,0.0,0,0,0,0,0,0.00,0.00,0.00,0.00,9.88,-145.30
2017-11-02 01:40:00,10.41,81.30,0.000,207.50,0.26,0.4,13.75,0.00,-265.41,0.0,0,0,0,0,0,0.00,0.00,0.00,0.00,9.99,-145.00
2017-11-02 01:50:00,10.54,80.40,0.001,195.50,0.15,0.5,13.75,0.00,-263.38,0.0,0,0,0,0,0,0.00,0.00,0.00,0.00,10.12,-144.90
2017-11-02 02:00:00,10.74,78.84,0.001,199.00,0.21,0.5,13.41,0.00,-263.71,0.0,0,0,0,0,0,0.00,0.00,0.00,0.00,10.16,-144.90
2017-11-02 02:10:00,10.78,77.62,0.000,203.60,0.35,0.5,9.68,0.00,-263.04,0.0,0,0,0,0,0,0.00,0.00,0.00,0.00,10.08,-144.90
2017-11-02 02:20:00,10.53,78.51,0.001,207.70,0.22,0.5,9.69,0.00,-262.03,0.0,0,0,0,0,0,0.00,0.00,0.00,0.00,9.99,-144.80
2017-11-02 02:30:00,10.58,78.61,0.001,217.60,0.17,0.5,10.36,0.00,-261.01,0.0,0,0,0,0,0,0.00,0.00,0.00,0.00,10.12,-144.40
2017-11-02 02:40:00,10.62,77.56,0.001,211.20,0.21,0.5,14.08,0.00,-262.70,0.0,0,0,0,0,0,0.00,0.00,0.00,0.00,10.33,-144.70
2017-11-02 02:50:00,10.82,76.68,0.000,207.10,0.21,0.5,10.36,0.00,-262.70,0.0,0,0,0,0,0,0.00,0.00,0.00,0.00,10.41,-144.80
2017-11-02 03:00:00,10.74,76.91,0.000,195.60,0.19,0.5,13.75,0.00,-262.02,0.0,0,0,0,0,0,0.00,0.00,0.00,0.00,10.28,-144.80
2017-11-02 03:10:00,10.69,77.18,0.000,206.30,0.25,0.5,13.07,0.00,-262.36,0.0,0,0,0,0,0,0.00,0.00,0.00,0.00,10.15,-144.40
2017-11-02 03:20:00,10.90,76.13,0.001,208.70,0.30,0.5,13.74,0.00,-260.66,0.0,0,0,0,0,0,0.00,0.00,0.00,0.00,10.44,-144.50
2017-11-02 03:30:00,10.86,75.49,0.000,216.80,0.30,0.5,10.36,0.00,-260.67,0.0,0,0,0,0,0,0.00,0.00,0.00,0.00,10.28,-144.30
2017-11-02 03:40:00,10.82,75.49,0.000,210.30,2.40,0.5,11.04,0.00,-260.33,0.0,0,0,0,0,0,0.00,0.00,0.00,0.00,10.15,-144.40
2017-11-02 03:50:00,10.78,75.32,0.000,212.10,0.87,0.5,13.75,0.00,-260.67,0.0,0,0,0,0,0,0.00,0.00,0.00,0.00,10.03,-144.20
2017-11-02 04:00:00,10.73,75.63,0.000,211.20,1.38,0.5,12.73,0.00,-265.07,0.0,0,0,0,0,0,0.00,0.00,0.00,0.00,9.98,-144.50
2017-11-02 04:10:00,10.57,76.51,0.000,205.50,0.26,0.5,13.75,0.00,-267.78,0.0,0,0,0,0,0,0.00,0.00,0.00,0.00,9.82,-144.60
2017-11-02 04:20:00,10.65,76.31,0.000,207.30,0.31,0.5,10.36,0.00,-266.77,0.0,0,0,0,0,0,0.00,0.00,0.00,0.00,9.91,-144.70
2017-11-02 04:30:00,10.61,75.87,0.000,218.30,0.50,0.5,10.70,0.00,-266.43,0.0,0,0,0,0,0,0.00,0.00,0.00,0.00,9.99,-144.40
2017-11-02 04:40:00,10.78,74.71,0.000,216.10,0.90,0.5,13.07,0.00,-266.08,0.0,0,0,0,0,0,0.00,0.00,0.00,0.00,9.95,-144.70
2017-11-02 04:50:00,10.66,75.49,0.000,223.80,0.15,0.5,9.68,0.00,-265.41,0.0,0,0,0,0,0,0.00,0.00,0.00,0.00,9.79,-144.70
2017-11-02 05:00:00,10.53,76.10,0.000,208.50,0.45,0.5,14.42,0.00,-265.41,0.0,0,0,0,0,0,0.00,0.00,0.00,0.00,9.74,-144.80
2017-11-02 05:10:00,10.36,76.61,0.000,199.40,0.81,0.5,9.35,0.00,-265.75,0.0,0,0,0,0,0,0.00,0.00,0.00,0.00,9.41,-145.00
2017-11-02 05:20:00,10.32,77.19,0.000,202.00,0.72,0.5,13.75,0.00,-266.77,0.0,0,0,0,0,0,0.00,0.00,0.00,0.00,9.33,-144.80
2017-11-02 05:30:00,10.16,77.86,0.000,196.50,0.69,0.5,11.38,0.00,-270.49,0.0,0,0,0,0,0,0.00,0.00,0.00,0.00,9.21,-144.90
2017-11-02 05:40:00,10.04,78.44,0.000,198.90,1.52,0.4,13.74,0.00,-272.17,0.0,0,0,0,0,0,0.00,0.00,0.00,0.00,9.25,-144.80
2017-11-02 05:50:00,10.08,78.74,0.000,197.00,0.86,0.5,9.68,0.00,-272.17,0.0,0,0,0,0,0,0.00,0.00,0.00,0.00,9.00,-145.00
2017-11-02 06:00:00,10.08,78.57,0.002,201.50,0.57,0.5,10.36,0.00,-271.50,0.0,0,0,0,0,0,0.00,0.00,0.00,0.00,9.04,-145.20
2017-11-02 06:10:00,10.20,78.03,0.002,205.50,0.67,0.5,13.74,0.00,-272.51,0.0,0,0,0,0,0,0.00,0.00,0.00,0.00,9.20,-144.80
2017-11-02 06:20:00,10.28,77.39,0.007,190.70,0.85,0.5,13.74,0.00,-270.82,0.0,0,0,0,0,0,0.00,0.00,0.00,0.00,9.41,-144.90
2017-11-02 06:30:00,10.41,76.81,0.014,204.70,0.49,0.4,13.07,0.00,-271.50,0.0,0,0,0,0,0,0.00,0.00,0.00,0.00,9.62,-144.90
2017-11-02 06:40:00,10.37,77.05,0.022,189.50,0.62,0.5,10.36,0.00,-269.47,0.0,0,0,0,0,0,0.00,0.00,0.00,0.00,9.62,-144.90
2017-11-02 06:50:00,10.45,76.95,0.034,202.00,0.41,0.4,13.74,0.00,-271.50,0.0,0,0,0,0,0,0.00,0.00,0.00,0.00,9.74,-144.70
2017-11-02 07:00:00,10.58,76.64,0.049,181.50,0.48,0.5,9.00,0.00,-272.85,0.0,0,0,0,0,0,0.00,0.00,0.00,0.00,10.04,-144.70
2017-11-02 07:10:00,10.66,76.68,0.068,194.50,0.75,0.5,9.34,0.00,-273.87,0.0,0,0,0,0,0,0.00,0.00,0.00,0.00,10.20,-144.70
2017-11-02 07:20:00,10.74,76.68,0.079,200.50,1.18,0.5,13.07,0.00,-270.14,0.0,0,0,0,0,0,0.00,0.00,0.00,0.00,10.36,-144.60
2017-11-02 07:30:00,10.86,76.57,0.100,200.40,0.96,0.4,9.68,0.00,-268.11,0.0,0,0,0,0,0,0.00,0.00,0.00,0.00,10.52,-144.10
2017-11-02 07:40:00,11.07,76.14,0.118,201.60,0.77,0.5,12.39,0.00,-266.09,0.0,0,0,0,0,0,0.00,0.00,0.00,0.00,10.78,-144.40
2017-11-02 07:50:00,11.35,75.46,0.123,179.00,0.90,0.5,12.05,0.00,-264.39,0.0,0,0,0,0,0,0.00,0.00,0.00,0.00,11.47,-143.70
2017-11-02 08:00:00,11.80,74.04,0.150,188.20,0.37,0.5,13.07,0.00,-260.66,0.0,0,0,0,0,0,0.00,0.00,0.00,0.00,12.13,-143.20
2017-11-02 08:10:00,12.30,72.17,0.202,201.60,0.48,0.5,12.05,0.00,-258.30,0.0,0,0,0,0,0,0.00,0.00,0.00,0.00,12.75,-143.10
2017-11-02 08:20:00,12.71,70.31,0.191,212.70,0.61,0.5,9.34,0.00,-254.24,0.0,0,0,0,0,0,0.00,0.00,0.00,0.00,13.44,-142.40
2017-11-02 08:30:00,13.28,67.16,0.260,202.00,0.83,0.5,13.75,0.00,-254.92,0.0,0,0,0,0,0,0.00,0.00,0.00,0.00,13.90,-142.10
2017-11-02 08:40:00,13.66,65.91,0.374,205.10,0.96,0.5,9.69,0.00,-248.83,0.0,0,0,0,0,0,0.00,0.00,0.00,0.00,14.06,-141.30